Previsão horária em Alikanas

Hoje, 21 Janeiro, Quinta-feira

Tempo Temperatura Precipitação Vento Pressão Humidade
00:00 +13°C° 0 mm 5 m/s 770 mmHg 65%
01:00 +13°C° 0 mm 6 m/s 770 mmHg 65%
02:00 +13°C° 0 mm 5 m/s 770 mmHg 65%
03:00 +13°C° 0 mm 5 m/s 769 mmHg 65%
04:00 +13°C° 0 mm 5 m/s 769 mmHg 66%
05:00 +13°C° 0.1 mm 5 m/s 769 mmHg 67%
06:00 +13°C° 0.1 mm 5 m/s 769 mmHg 69%
07:00 +13°C° 0.1 mm 5 m/s 769 mmHg 70%
08:00 +13°C° 0.1 mm 5 m/s 769 mmHg 69%
09:00 +14°C° 0.1 mm 6 m/s 770 mmHg 68%
10:00 +14°C° 0.1 mm 6 m/s 770 mmHg 67%
11:00 +14°C° 0.1 mm 6 m/s 769 mmHg 67%
12:00 +14°C° 0.1 mm 6 m/s 769 mmHg 67%
13:00 +14°C° 0.1 mm 6 m/s 769 mmHg 68%
14:00 +14°C° 0.1 mm 6 m/s 769 mmHg 68%
15:00 +14°C° 0.1 mm 6 m/s 769 mmHg 68%
16:00 +14°C° 0.1 mm 6 m/s 768 mmHg 69%
17:00 +14°C° 0.1 mm 6 m/s 768 mmHg 71%
18:00 +14°C° 0.1 mm 6 m/s 768 mmHg 73%
19:00 +14°C° 0.1 mm 6 m/s 768 mmHg 76%
20:00 +14°C° 0.1 mm 6 m/s 768 mmHg 75%
21:00 +14°C° 0.1 mm 6 m/s 769 mmHg 75%
22:00 +14°C° 0.1 mm 6 m/s 769 mmHg 74%
23:00 +14°C° 0.1 mm 6 m/s 768 mmHg 75%

Amanhã, 22 Janeiro, Sexta-feira

Tempo Temperatura Precipitação Vento Pressão Humidade
00:00 +14°C° 0.1 mm 6 m/s 768 mmHg 76%
01:00 +14°C° 0.1 mm 6 m/s 768 mmHg 77%
02:00 +14°C° 0.3 mm 6 m/s 768 mmHg 78%
03:00 +14°C° 0.3 mm 7 m/s 767 mmHg 79%
04:00 +14°C° 0.3 mm 7 m/s 767 mmHg 79%
05:00 +14°C° 0.3 mm 7 m/s 767 mmHg 78%
06:00 +14°C° 0.3 mm 7 m/s 767 mmHg 76%
07:00 +14°C° 0.3 mm 7 m/s 767 mmHg 75%
08:00 +14°C° 0.1 mm 7 m/s 767 mmHg 75%
09:00 +15°C° 0.1 mm 7 m/s 767 mmHg 75%
10:00 +15°C° 0.1 mm 7 m/s 767 mmHg 74%
11:00 +15°C° 0.1 mm 7 m/s 767 mmHg 74%
12:00 +15°C° 0.1 mm 7 m/s 766 mmHg 74%
13:00 +15°C° 0.1 mm 8 m/s 766 mmHg 74%
14:00 +15°C° 0.2 mm 8 m/s 765 mmHg 74%
15:00 +15°C° 0.2 mm 8 m/s 765 mmHg 74%
16:00 +15°C° 0.2 mm 8 m/s 765 mmHg 75%
17:00 +13°C° 0 mm 8 m/s 765 mmHg 75%
18:00 +14°C° 0 mm 7 m/s 765 mmHg 75%
19:00 +14°C° 0 mm 7 m/s 764 mmHg 74%
20:00 +14°C° 0.1 mm 7 m/s 764 mmHg 74%
21:00 +13°C° 0.1 mm 8 m/s 764 mmHg 73%
22:00 +13°C° 0.1 mm 8 m/s 764 mmHg 72%
23:00 +13°C° 0.1 mm 8 m/s 764 mmHg 73%

Depois de amanhã, 23 Janeiro, Sábado

Tempo Temperatura Precipitação Vento Pressão Humidade
00:00 +13°C° 0.1 mm 8 m/s 764 mmHg 74%
01:00 +13°C° 0.1 mm 9 m/s 763 mmHg 75%
02:00 +13°C° 0.2 mm 9 m/s 763 mmHg 75%
03:00 +13°C° 0.2 mm 9 m/s 762 mmHg 76%
04:00 +13°C° 0.2 mm 9 m/s 762 mmHg 76%
05:00 +13°C° 0.3 mm 10 m/s 762 mmHg 77%
06:00 +13°C° 0.3 mm 11 m/s 761 mmHg 78%
07:00 +13°C° 0.3 mm 11 m/s 761 mmHg 79%
08:00 +13°C° 0.4 mm 12 m/s 761 mmHg 78%
09:00 +14°C° 0.4 mm 12 m/s 760 mmHg 78%
10:00 +14°C° 0.4 mm 13 m/s 760 mmHg 77%
11:00 +14°C° 0.4 mm 13 m/s 759 mmHg 76%
12:00 +14°C° 0.4 mm 14 m/s 759 mmHg 75%
13:00 +14°C° 0.4 mm 14 m/s 758 mmHg 74%
14:00 +14°C° 0.3 mm 14 m/s 758 mmHg 74%
15:00 +14°C° 0.3 mm 15 m/s 757 mmHg 74%
16:00 +15°C° 0.3 mm 15 m/s 756 mmHg 74%
17:00 +14°C° 0.9 mm 14 m/s 756 mmHg 76%
18:00 +14°C° 0.9 mm 12 m/s 757 mmHg 77%
19:00 +14°C° 0.9 mm 11 m/s 757 mmHg 78%
20:00 +14°C° 0.3 mm 11 m/s 757 mmHg 77%
21:00 +14°C° 0.3 mm 10 m/s 757 mmHg 77%
22:00 +13°C° 0.3 mm 9 m/s 757 mmHg 76%
23:00 +13°C° 0.2 mm 8 m/s 757 mmHg 76%

24 Janeiro, Domingo

Tempo Temperatura Precipitação Vento Pressão Humidade
00:00 +13°C° 0.2 mm 8 m/s 758 mmHg 77%
01:00 +14°C° 0.2 mm 7 m/s 758 mmHg 77%
02:00 +14°C° 0 mm 7 m/s 758 mmHg 76%
03:00 +14°C° 0 mm 6 m/s 758 mmHg 75%
04:00 +13°C° 0 mm 6 m/s 758 mmHg 74%
05:00 +13°C° 0.1 mm 6 m/s 758 mmHg 74%
06:00 +13°C° 0.1 mm 6 m/s 758 mmHg 74%
07:00 +13°C° 0.1 mm 6 m/s 758 mmHg 74%
08:00 +14°C° 0 mm 6 m/s 759 mmHg 73%
09:00 +14°C° 0 mm 6 m/s 759 mmHg 72%
10:00 +15°C° 0 mm 7 m/s 759 mmHg 71%
11:00 +15°C° 0.1 mm 7 m/s 759 mmHg 72%
12:00 +15°C° 0.1 mm 7 m/s 758 mmHg 73%
13:00 +15°C° 0.1 mm 8 m/s 758 mmHg 74%
14:00 +15°C° 0.2 mm 8 m/s 758 mmHg 74%
15:00 +15°C° 0.2 mm 8 m/s 757 mmHg 75%
16:00 +13°C° 0.2 mm 8 m/s 757 mmHg 75%
17:00 +13°C° 0.1 mm 9 m/s 757 mmHg 75%
18:00 +13°C° 0.1 mm 9 m/s 757 mmHg 74%
19:00 +13°C° 0.1 mm 10 m/s 757 mmHg 74%
20:00 +13°C° 0.7 mm 11 m/s 756 mmHg 75%
21:00 +13°C° 0.7 mm 13 m/s 755 mmHg 77%
22:00 +14°C° 0.7 mm 15 m/s 755 mmHg 78%
23:00 +14°C° 1.6 mm 15 m/s 754 mmHg 79%

25 Janeiro, Segunda-feira

Tempo Temperatura Precipitação Vento Pressão Humidade
00:00 +14°C° 1.6 mm 14 m/s 754 mmHg 80%
01:00 +14°C° 1.6 mm 14 m/s 753 mmHg 81%
02:00 +14°C° 0.7 mm 14 m/s 753 mmHg 80%
03:00 +14°C° 0.7 mm 14 m/s 753 mmHg 78%
04:00 +14°C° 0.7 mm 13 m/s 753 mmHg 77%
05:00 +13°C° 0.1 mm 12 m/s 754 mmHg 71%
06:00 +13°C° 0.1 mm 11 m/s 755 mmHg 66%
07:00 +13°C° 0.1 mm 11 m/s 756 mmHg 60%
08:00 +13°C° 0 mm 10 m/s 756 mmHg 60%
09:00 +13°C° 0 mm 9 m/s 757 mmHg 60%
10:00 +13°C° 0 mm 8 m/s 758 mmHg 61%
11:00 +13°C° 0 mm 8 m/s 758 mmHg 61%
12:00 +14°C° 0 mm 7 m/s 758 mmHg 61%
13:00 +14°C° 0 mm 7 m/s 757 mmHg 62%
14:00 +13°C° 0 mm 8 m/s 757 mmHg 63%
15:00 +13°C° 0 mm 9 m/s 757 mmHg 63%
16:00 +13°C° 0 mm 9 m/s 757 mmHg 64%
17:00 +13°C° 0.4 mm 10 m/s 758 mmHg 64%
18:00 +13°C° 0.4 mm 11 m/s 758 mmHg 65%
19:00 +13°C° 0.4 mm 12 m/s 758 mmHg 66%
20:00 +12°C° 0.3 mm 11 m/s 758 mmHg 71%
21:00 +12°C° 0.3 mm 11 m/s 758 mmHg 76%
22:00 +11°C° 0.3 mm 11 m/s 759 mmHg 80%
23:00 +11°C° 0.3 mm 11 m/s 759 mmHg 75%

26 Janeiro, Terça-feira

Tempo Temperatura Precipitação Vento Pressão Humidade
00:00 +11°C° 0.3 mm 11 m/s 759 mmHg 69%
01:00 +11°C° 0.3 mm 11 m/s 759 mmHg 64%
02:00 +10°C° 0.1 mm 12 m/s 759 mmHg 62%
03:00 +10°C° 0.1 mm 12 m/s 760 mmHg 60%
04:00 +10°C° 0.1 mm 13 m/s 760 mmHg 58%
05:00 +10°C° 0 mm 12 m/s 760 mmHg 57%
06:00 +11°C° 0 mm 11 m/s 761 mmHg 56%
07:00 +9°C° 0 mm 11 m/s 762 mmHg 55%
08:00 +9°C° 0 mm 10 m/s 762 mmHg 54%
09:00 +11°C° 0 mm 10 m/s 762 mmHg 54%
10:00 +11°C° 0 mm 9 m/s 763 mmHg 54%
11:00 +11°C° 0 mm 9 m/s 763 mmHg 54%
12:00 +11°C° 0 mm 9 m/s 763 mmHg 54%
13:00 +11°C° 0 mm 8 m/s 763 mmHg 55%
14:00 +11°C° 0 mm 8 m/s 763 mmHg 55%
15:00 +10°C° 0 mm 8 m/s 763 mmHg 56%
16:00 +10°C° 0 mm 8 m/s 763 mmHg 56%
17:00 +10°C° 0 mm 8 m/s 764 mmHg 54%
18:00 +10°C° 0 mm 7 m/s 764 mmHg 52%
19:00 +10°C° 0 mm 7 m/s 764 mmHg 50%
20:00 +10°C° 0 mm 6 m/s 765 mmHg 48%
21:00 +10°C° 0 mm 5 m/s 765 mmHg 46%
22:00 +10°C° 0 mm 5 m/s 765 mmHg 44%
23:00 +11°C° 0 mm 4 m/s 765 mmHg 49%
Mostrar mais

Necessitamos do seu Consentimento

A Meteoprog e os seus Fornecedores de Serviços podem armazenar e aceder a dados pessoais como cookies, identificadores do dispositivo ou outras tecnologias semelhantes existentes no seu dispositivo e processar estes dados para personalizar conteúdos e anúncios, assim como funcionalidades nas redes sociais e análise de tráfego.

  • Armazenar e/ou aceder a informações no seu dispositivo

    Os cookies, identificadores do dispositivo ou outras informações podem ser armazenados ou acedidos no seu dispositivo, para os fins acima indicados.

  • Anúncios e conteúdos personalizados, medição de anúncios e conteúdos, dados sobre o público-alvo e desenvolvimento de produtos

    Os anúncios e os conteúdos podem ser personalizados com base num perfil. Podem ser adicionados dados adicionais para uma maior personalização dos anúncios e dos conteúdos. A eficácia dos anúncios e dos conteúdos pode ser medida. Podem ser obtidas informações sobre o público que visualizou os anúncios e os conteúdos. Estes dados podem ser usados para desenvolver ou melhorar sistemas, softwares ou a experiência do utilizador.

Ao clicar em "Eu concordo”, permitirá o uso de cookies, identificadores do dispositivo e web beacons mencionados ou outras tecnologias semelhantes. As configurações do navegador do seu dispositivo podem ser alteradas.

Para certos fins, podem ser invocados interesses legítimos ao invés de consentimento. Pode ler mais informação sobre este assunto na nossa Política de Privacidade e Cookies.